owner,sensor,date,latitude,longitude,vertical_datum,wind_speed,wind_to_direction,wind_speed_of_gust,qcFlag 
WAVCIS,ioos:station:WAVCIS:CSI15:1,2010-03-01T00:00:00Z,28.8332,-90.8320,10.0,3.561,112.0,,'11111222,11111222,99999999' 
WAVCIS,ioos:station:WAVCIS:CSI15:1,2010-03-01T01:00:00Z,28.8332,-90.8320,10.0,4.952,117.0,,'11111222,11111222,99999999' 
WAVCIS,ioos:station:WAVCIS:CSI15:1,2010-03-01T02:00:00Z,28.8332,-90.8320,10.0,4.98,121.0,,'11111222,11111222,99999999' 
WAVCIS,ioos:station:WAVCIS:CSI15:1,2010-03-01T03:00:00Z,28.8332,-90.8320,10.0,5.49,102.0,,'11111222,11111222,99999999' 
WAVCIS,ioos:station:WAVCIS:CSI15:1,2010-03-01T04:00:00Z,28.8332,-90.8320,10.0,5.151,85.0,,'11111222,11111222,99999999' 
WAVCIS,ioos:station:WAVCIS:CSI15:1,2010-03-01T05:00:00Z,28.8332,-90.8320,10.0,6.193,79.0,,'11111222,11111222,99999999' 
WAVCIS,ioos:station:WAVCIS:CSI15:1,2010-03-01T06:00:00Z,28.8332,-90.8320,10.0,5.834,80.0,,'11111222,11111222,99999999' 
WAVCIS,ioos:station:WAVCIS:CSI15:1,2010-03-01T07:00:00Z,28.8332,-90.8320,10.0,5.077,78.0,,'11111222,11111222,99999999' 
WAVCIS,ioos:station:WAVCIS:CSI15:1,2010-03-01T08:00:00Z,28.8332,-90.8320,10.0,4.438,81.0,,'11111222,11111222,99999999' 
WAVCIS,ioos:station:WAVCIS:CSI15:1,2010-03-01T09:00:00Z,28.8332,-90.8320,10.0,5.102,67.0,,'11111222,11111222,99999999' 
WAVCIS,ioos:station:WAVCIS:CSI15:1,2010-03-01T10:00:00Z,28.8332,-90.8320,10.0,7.05,64.0,,'11111222,11111222,99999999' 
WAVCIS,ioos:station:WAVCIS:CSI15:1,2010-03-01T11:00:00Z,28.8332,-90.8320,10.0,5.077,38.0,,'11111222,11111222,99999999' 
WAVCIS,ioos:station:WAVCIS:CSI15:1,2010-03-01T12:00:00Z,28.8332,-90.8320,10.0,5.164,9.0,,'11111222,11111222,99999999' 
WAVCIS,ioos:station:WAVCIS:CSI15:1,2010-03-01T13:00:00Z,28.8332,-90.8320,10.0,7.83,24.0,,'11111222,11111222,99999999' 
WAVCIS,ioos:station:WAVCIS:CSI15:1,2010-03-01T14:00:00Z,28.8332,-90.8320,10.0,9.1,40.0,,'11111222,11111222,99999999' 
WAVCIS,ioos:station:WAVCIS:CSI15:1,2010-03-01T15:00:00Z,28.8332,-90.8320,10.0,11.03,46.0,,'11111222,11111222,99999999' 
WAVCIS,ioos:station:WAVCIS:CSI15:1,2010-03-01T16:00:00Z,28.8332,-90.8320,10.0,11.11,66.0,,'11111222,11111222,99999999' 
WAVCIS,ioos:station:WAVCIS:CSI15:1,2010-03-01T17:00:00Z,28.8332,-90.8320,10.0,12.84,76.0,,'11111222,11111222,99999999' 
WAVCIS,ioos:station:WAVCIS:CSI15:1,2010-03-01T18:00:00Z,28.8332,-90.8320,10.0,11.71,84.0,,'11111222,11111222,99999999' 
WAVCIS,ioos:station:WAVCIS:CSI15:1,2010-03-01T19:00:00Z,28.8332,-90.8320,10.0,11.32,101.0,,'11111222,11111222,99999999' 
WAVCIS,ioos:station:WAVCIS:CSI15:1,2010-03-01T20:00:00Z,28.8332,-90.8320,10.0,12.34,113.0,,'11111222,11111222,99999999' 
WAVCIS,ioos:station:WAVCIS:CSI15:1,2010-03-01T21:00:00Z,28.8332,-90.8320,10.0,8.83,141.0,,'11111222,11111222,99999999' 
WAVCIS,ioos:station:WAVCIS:CSI15:1,2010-03-01T22:00:00Z,28.8332,-90.8320,10.0,11.13,148.0,,'11111222,11111222,99999999' 
WAVCIS,ioos:station:WAVCIS:CSI15:1,2010-03-01T23:00:00Z,28.8332,-90.8320,10.0,14.23,160.0,,'11111222,11111222,99999999' 
WAVCIS,ioos:station:WAVCIS:CSI15:1,2010-03-02T00:00:00Z,28.8332,-90.8320,10.0,12.59,188.0,,'11111222,11111222,99999999' 
WAVCIS,ioos:station:WAVCIS:CSI15:1,2010-03-02T01:00:00Z,28.8332,-90.8320,10.0,12.26,14.0,,'11111222,11111222,99999999' 
WAVCIS,ioos:station:WAVCIS:CSI15:1,2010-03-02T02:00:00Z,28.8332,-90.8320,10.0,8.71,23.0,,'11111222,11111222,99999999' 
WAVCIS,ioos:station:WAVCIS:CSI15:1,2010-03-02T03:00:00Z,28.8332,-90.8320,10.0,7.7,18.0,,'11111222,11111222,99999999' 
WAVCIS,ioos:station:WAVCIS:CSI15:1,2010-03-02T04:00:00Z,28.8332,-90.8320,10.0,5.803,21.0,,'11111222,11111222,99999999' 
WAVCIS,ioos:station:WAVCIS:CSI15:1,2010-03-02T05:00:00Z,28.8332,-90.8320,10.0,6.442,342.0,,'11111222,11111222,99999999' 
WAVCIS,ioos:station:WAVCIS:CSI15:1,2010-03-02T06:00:00Z,28.8332,-90.8320,10.0,5.016,303.0,,'11111222,11111222,99999999' 
WAVCIS,ioos:station:WAVCIS:CSI15:1,2010-03-02T07:00:00Z,28.8332,-90.8320,10.0,6.555,275.0,,'11111222,11111222,99999999' 
WAVCIS,ioos:station:WAVCIS:CSI15:1,2010-03-02T08:00:00Z,28.8332,-90.8320,10.0,9.32,285.0,,'11111222,11111222,99999999' 
WAVCIS,ioos:station:WAVCIS:CSI15:1,2010-03-02T09:00:00Z,28.8332,-90.8320,10.0,12.94,288.0,,'11111222,11111222,99999999' 
WAVCIS,ioos:station:WAVCIS:CSI15:1,2010-03-02T10:00:00Z,28.8332,-90.8320,10.0,11.38,301.0,,'11111222,11111222,99999999' 
WAVCIS,ioos:station:WAVCIS:CSI15:1,2010-03-02T11:00:00Z,28.8332,-90.8320,10.0,13.83,303.0,,'11111222,11111222,99999999' 
WAVCIS,ioos:station:WAVCIS:CSI15:1,2010-03-02T12:00:00Z,28.8332,-90.8320,10.0,13.74,307.0,,'11111222,11111222,99999999' 
WAVCIS,ioos:station:WAVCIS:CSI15:1,2010-03-02T13:00:00Z,28.8332,-90.8320,10.0,14.02,311.0,,'11111222,11111222,99999999' 
WAVCIS,ioos:station:WAVCIS:CSI15:1,2010-03-02T14:00:00Z,28.8332,-90.8320,10.0,14.85,321.0,,'11111222,11111222,99999999' 
WAVCIS,ioos:station:WAVCIS:CSI15:1,2010-03-02T15:00:00Z,28.8332,-90.8320,10.0,13.9,306.0,,'11111222,11111222,99999999' 
WAVCIS,ioos:station:WAVCIS:CSI15:1,2010-03-02T16:00:00Z,28.8332,-90.8320,10.0,13.28,298.0,,'11111222,11111222,99999999' 
WAVCIS,ioos:station:WAVCIS:CSI15:1,2010-03-02T17:00:00Z,28.8332,-90.8320,10.0,13.97,292.0,,'11111222,11111222,99999999' 
WAVCIS,ioos:station:WAVCIS:CSI15:1,2010-03-02T18:00:00Z,28.8332,-90.8320,10.0,12.87,294.0,,'11111222,11111222,99999999' 
WAVCIS,ioos:station:WAVCIS:CSI15:1,2010-03-02T19:00:00Z,28.8332,-90.8320,10.0,13.41,293.0,,'11111222,11111222,99999999' 
WAVCIS,ioos:station:WAVCIS:CSI15:1,2010-03-02T20:00:00Z,28.8332,-90.8320,10.0,13.39,289.0,,'11111222,11111222,99999999' 
WAVCIS,ioos:station:WAVCIS:CSI15:1,2010-03-02T21:00:00Z,28.8332,-90.8320,10.0,14.28,288.0,,'11111222,11111222,99999999' 
WAVCIS,ioos:station:WAVCIS:CSI15:1,2010-03-02T22:00:00Z,28.8332,-90.8320,10.0,12.88,296.0,,'11111222,11111222,99999999' 
WAVCIS,ioos:station:WAVCIS:CSI15:1,2010-03-02T23:00:00Z,28.8332,-90.8320,10.0,12.05,296.0,,'11111222,11111222,99999999' 
WAVCIS,ioos:station:WAVCIS:CSI15:1,2010-03-03T00:00:00Z,28.8332,-90.8320,10.0,12.34,308.0,,'11111222,11111222,99999999' 
WAVCIS,ioos:station:WAVCIS:CSI15:1,2010-03-03T01:00:00Z,28.8332,-90.8320,10.0,13.13,312.0,,'11111222,11111222,99999999' 
WAVCIS,ioos:station:WAVCIS:CSI15:1,2010-03-03T02:00:00Z,28.8332,-90.8320,10.0,10.87,315.0,,'11111222,11111222,99999999' 
WAVCIS,ioos:station:WAVCIS:CSI15:1,2010-03-03T03:00:00Z,28.8332,-90.8320,10.0,8.48,343.0,,'11111222,11111222,99999999' 
WAVCIS,ioos:station:WAVCIS:CSI15:1,2010-03-03T04:00:00Z,28.8332,-90.8320,10.0,8.81,338.0,,'11111222,11111222,99999999' 
WAVCIS,ioos:station:WAVCIS:CSI15:1,2010-03-03T05:00:00Z,28.8332,-90.8320,10.0,7.71,336.0,,'11111222,11111222,99999999' 
WAVCIS,ioos:station:WAVCIS:CSI15:1,2010-03-03T06:00:00Z,28.8332,-90.8320,10.0,6.828,335.0,,'11111222,11111222,99999999' 
WAVCIS,ioos:station:WAVCIS:CSI15:1,2010-03-03T07:00:00Z,28.8332,-90.8320,10.0,5.174,345.0,,'11111222,11111222,99999999' 
WAVCIS,ioos:station:WAVCIS:CSI15:1,2010-03-03T08:00:00Z,28.8332,-90.8320,10.0,5.607,336.0,,'11111222,11111222,99999999' 
WAVCIS,ioos:station:WAVCIS:CSI15:1,2010-03-03T09:00:00Z,28.8332,-90.8320,10.0,5.241,330.0,,'11111222,11111222,99999999' 
WAVCIS,ioos:station:WAVCIS:CSI15:1,2010-03-03T10:00:00Z,28.8332,-90.8320,10.0,5.024,330.0,,'11111222,11111222,99999999' 
WAVCIS,ioos:station:WAVCIS:CSI15:1,2010-03-03T11:00:00Z,28.8332,-90.8320,10.0,5.191,335.0,,'11111222,11111222,99999999' 
WAVCIS,ioos:station:WAVCIS:CSI15:1,2010-03-03T12:00:00Z,28.8332,-90.8320,10.0,4.225,330.0,,'11111222,11111222,99999999' 
WAVCIS,ioos:station:WAVCIS:CSI15:1,2010-03-03T13:00:00Z,28.8332,-90.8320,10.0,5.438,332.0,,'11111222,11111222,99999999' 
WAVCIS,ioos:station:WAVCIS:CSI15:1,2010-03-03T14:00:00Z,28.8332,-90.8320,10.0,4.811,324.0,,'11111222,11111222,99999999' 
WAVCIS,ioos:station:WAVCIS:CSI15:1,2010-03-03T15:00:00Z,28.8332,-90.8320,10.0,4.083,324.0,,'11111222,11111222,99999999' 
WAVCIS,ioos:station:WAVCIS:CSI15:1,2010-03-03T16:00:00Z,28.8332,-90.8320,10.0,3.861,313.0,,'11111222,11111222,99999999' 
WAVCIS,ioos:station:WAVCIS:CSI15:1,2010-03-03T17:00:00Z,28.8332,-90.8320,10.0,2.877,290.0,,'11111222,11111222,99999999' 
WAVCIS,ioos:station:WAVCIS:CSI15:1,2010-03-03T18:00:00Z,28.8332,-90.8320,10.0,4.725,283.0,,'11111222,11111222,99999999' 
WAVCIS,ioos:station:WAVCIS:CSI15:1,2010-03-03T19:00:00Z,28.8332,-90.8320,10.0,5.01,270.0,,'11111222,11111222,99999999' 
WAVCIS,ioos:station:WAVCIS:CSI15:1,2010-03-03T20:00:00Z,28.8332,-90.8320,10.0,5.092,254.0,,'11111222,11111222,99999999' 
WAVCIS,ioos:station:WAVCIS:CSI15:1,2010-03-03T21:00:00Z,28.8332,-90.8320,10.0,5.674,259.0,,'11111222,11111222,99999999' 
WAVCIS,ioos:station:WAVCIS:CSI15:1,2010-03-03T22:00:00Z,28.8332,-90.8320,10.0,6.586,261.0,,'11111222,11111222,99999999' 
WAVCIS,ioos:station:WAVCIS:CSI15:1,2010-03-03T23:00:00Z,28.8332,-90.8320,10.0,7.59,261.0,,'11111222,11111222,99999999' 
WAVCIS,ioos:station:WAVCIS:CSI15:1,2010-03-04T00:00:00Z,28.8332,-90.8320,10.0,7.18,267.0,,'11111222,11111222,99999999' 
WAVCIS,ioos:station:WAVCIS:CSI15:1,2010-03-04T01:00:00Z,28.8332,-90.8320,10.0,7.9,277.0,,'11111222,11111222,99999999' 
WAVCIS,ioos:station:WAVCIS:CSI15:1,2010-03-04T02:00:00Z,28.8332,-90.8320,10.0,8.4,283.0,,'11111222,11111222,99999999' 
WAVCIS,ioos:station:WAVCIS:CSI15:1,2010-03-04T03:00:00Z,28.8332,-90.8320,10.0,8.84,304.0,,'11111222,11111222,99999999' 
WAVCIS,ioos:station:WAVCIS:CSI15:1,2010-03-04T04:00:00Z,28.8332,-90.8320,10.0,9.86,317.0,,'11111222,11111222,99999999' 
WAVCIS,ioos:station:WAVCIS:CSI15:1,2010-03-04T05:00:00Z,28.8332,-90.8320,10.0,8.12,334.0,,'11111222,11111222,99999999' 
WAVCIS,ioos:station:WAVCIS:CSI15:1,2010-03-04T06:00:00Z,28.8332,-90.8320,10.0,9.05,347.0,,'11111222,11111222,99999999' 
WAVCIS,ioos:station:WAVCIS:CSI15:1,2010-03-04T07:00:00Z,28.8332,-90.8320,10.0,9.17,352.0,,'11111222,11111222,99999999' 
WAVCIS,ioos:station:WAVCIS:CSI15:1,2010-03-04T08:00:00Z,28.8332,-90.8320,10.0,7.44,355.0,,'11111222,11111222,99999999' 
WAVCIS,ioos:station:WAVCIS:CSI15:1,2010-03-04T09:00:00Z,28.8332,-90.8320,10.0,6.46,356.0,,'11111222,11111222,99999999' 
WAVCIS,ioos:station:WAVCIS:CSI15:1,2010-03-04T10:00:00Z,28.8332,-90.8320,10.0,5.278,3.0,,'11111222,11111222,99999999' 
WAVCIS,ioos:station:WAVCIS:CSI15:1,2010-03-04T11:00:00Z,28.8332,-90.8320,10.0,4.955,7.0,,'11111222,11111222,99999999' 
WAVCIS,ioos:station:WAVCIS:CSI15:1,2010-03-04T12:00:00Z,28.8332,-90.8320,10.0,5.063,6.0,,'11111222,11111222,99999999' 
WAVCIS,ioos:station:WAVCIS:CSI15:1,2010-03-04T13:00:00Z,28.8332,-90.8320,10.0,5.175,17.0,,'11111222,11111222,99999999' 
WAVCIS,ioos:station:WAVCIS:CSI15:1,2010-03-04T14:00:00Z,28.8332,-90.8320,10.0,5.256,15.0,,'11111222,11111222,99999999' 
WAVCIS,ioos:station:WAVCIS:CSI15:1,2010-03-04T15:00:00Z,28.8332,-90.8320,10.0,5.348,15.0,,'11111222,11111222,99999999' 
WAVCIS,ioos:station:WAVCIS:CSI15:1,2010-03-04T16:00:00Z,28.8332,-90.8320,10.0,5.586,21.0,,'11111222,11111222,99999999' 
WAVCIS,ioos:station:WAVCIS:CSI15:1,2010-03-04T17:00:00Z,28.8332,-90.8320,10.0,5.608,23.0,,'11111222,11111222,99999999' 
WAVCIS,ioos:station:WAVCIS:CSI15:1,2010-03-04T18:00:00Z,28.8332,-90.8320,10.0,4.266,24.0,,'11111222,11111222,99999999' 
WAVCIS,ioos:station:WAVCIS:CSI15:1,2010-03-04T19:00:00Z,28.8332,-90.8320,10.0,3.717,35.0,,'11111222,11111222,99999999' 
WAVCIS,ioos:station:WAVCIS:CSI15:1,2010-03-04T20:00:00Z,28.8332,-90.8320,10.0,3.489,50.0,,'11111222,11111222,99999999' 
WAVCIS,ioos:station:WAVCIS:CSI15:1,2010-03-04T21:00:00Z,28.8332,-90.8320,10.0,3.156,72.0,,'11111222,11111222,99999999' 
WAVCIS,ioos:station:WAVCIS:CSI15:1,2010-03-04T22:00:00Z,28.8332,-90.8320,10.0,1.681,92.0,,'11111222,11111222,99999999' 
WAVCIS,ioos:station:WAVCIS:CSI15:1,2010-03-04T23:00:00Z,28.8332,-90.8320,10.0,1.697,125.0,,'11111222,11111222,99999999' 
WAVCIS,ioos:station:WAVCIS:CSI15:1,2010-03-05T00:00:00Z,28.8332,-90.8320,10.0,2.155,165.0,,'11111222,11111222,99999999' 
WAVCIS,ioos:station:WAVCIS:CSI15:1,2010-03-05T01:00:00Z,28.8332,-90.8320,10.0,2.398,197.0,,'11111222,11111222,99999999' 
WAVCIS,ioos:station:WAVCIS:CSI15:1,2010-03-05T02:00:00Z,28.8332,-90.8320,10.0,1.707,219.0,,'11111222,11111222,99999999' 
WAVCIS,ioos:station:WAVCIS:CSI15:1,2010-03-05T03:00:00Z,28.8332,-90.8320,10.0,2.457,210.0,,'11111222,11111222,99999999' 
WAVCIS,ioos:station:WAVCIS:CSI15:1,2010-03-05T04:00:00Z,28.8332,-90.8320,10.0,2.291,205.0,,'11111222,11111222,99999999' 
WAVCIS,ioos:station:WAVCIS:CSI15:1,2010-03-05T05:00:00Z,28.8332,-90.8320,10.0,2.057,196.0,,'11111222,11111222,99999999' 
WAVCIS,ioos:station:WAVCIS:CSI15:1,2010-03-05T06:00:00Z,28.8332,-90.8320,10.0,1.68,220.0,,'11111222,11111222,99999999' 
WAVCIS,ioos:station:WAVCIS:CSI15:1,2010-03-05T07:00:00Z,28.8332,-90.8320,10.0,1.9,258.0,,'11111222,11111222,99999999' 
WAVCIS,ioos:station:WAVCIS:CSI15:1,2010-03-05T08:00:00Z,28.8332,-90.8320,10.0,2.072,287.0,,'11111222,11111222,99999999' 
WAVCIS,ioos:station:WAVCIS:CSI15:1,2010-03-05T09:00:00Z,28.8332,-90.8320,10.0,2.242,299.0,,'11111222,11111222,99999999' 
WAVCIS,ioos:station:WAVCIS:CSI15:1,2010-03-05T10:00:00Z,28.8332,-90.8320,10.0,2.793,302.0,,'11111222,11111222,99999999' 
WAVCIS,ioos:station:WAVCIS:CSI15:1,2010-03-05T11:00:00Z,28.8332,-90.8320,10.0,2.609,306.0,,'11111222,11111222,99999999' 
WAVCIS,ioos:station:WAVCIS:CSI15:1,2010-03-05T12:00:00Z,28.8332,-90.8320,10.0,3.303,333.0,,'11111222,11111222,99999999' 
WAVCIS,ioos:station:WAVCIS:CSI15:1,2010-03-05T13:00:00Z,28.8332,-90.8320,10.0,5.079,346.0,,'11111222,11111222,99999999' 
WAVCIS,ioos:station:WAVCIS:CSI15:1,2010-03-05T14:00:00Z,28.8332,-90.8320,10.0,5.382,359.0,,'11111222,11111222,99999999' 
WAVCIS,ioos:station:WAVCIS:CSI15:1,2010-03-05T15:00:00Z,28.8332,-90.8320,10.0,5.698,3.0,,'11111222,11111222,99999999' 
WAVCIS,ioos:station:WAVCIS:CSI15:1,2010-03-05T16:00:00Z,28.8332,-90.8320,10.0,4.59,4.0,,'11111222,11111222,99999999' 
WAVCIS,ioos:station:WAVCIS:CSI15:1,2010-03-05T17:00:00Z,28.8332,-90.8320,10.0,4.588,8.0,,'11111222,11111222,99999999' 
WAVCIS,ioos:station:WAVCIS:CSI15:1,2010-03-05T18:00:00Z,28.8332,-90.8320,10.0,4.012,32.0,,'11111222,11111222,99999999' 
WAVCIS,ioos:station:WAVCIS:CSI15:1,2010-03-05T19:00:00Z,28.8332,-90.8320,10.0,4.9,47.0,,'11111222,11111222,99999999' 
WAVCIS,ioos:station:WAVCIS:CSI15:1,2010-03-05T20:00:00Z,28.8332,-90.8320,10.0,4.191,64.0,,'11111222,11111222,99999999' 
WAVCIS,ioos:station:WAVCIS:CSI15:1,2010-03-05T21:00:00Z,28.8332,-90.8320,10.0,3.984,58.0,,'11111222,11111222,99999999' 
WAVCIS,ioos:station:WAVCIS:CSI15:1,2010-03-05T22:00:00Z,28.8332,-90.8320,10.0,2.63,75.0,,'11111222,11111222,99999999' 
WAVCIS,ioos:station:WAVCIS:CSI15:1,2010-03-05T23:00:00Z,28.8332,-90.8320,10.0,2.75,84.0,,'11111222,11111222,99999999' 
WAVCIS,ioos:station:WAVCIS:CSI15:1,2010-03-06T00:00:00Z,28.8332,-90.8320,10.0,3.221,104.0,,'11111222,11111222,99999999' 
WAVCIS,ioos:station:WAVCIS:CSI15:1,2010-03-06T01:00:00Z,28.8332,-90.8320,10.0,3.634,91.0,,'11111222,11111222,99999999' 
WAVCIS,ioos:station:WAVCIS:CSI15:1,2010-03-06T02:00:00Z,28.8332,-90.8320,10.0,4.206,90.0,,'11111222,11111222,99999999' 
WAVCIS,ioos:station:WAVCIS:CSI15:1,2010-03-06T03:00:00Z,28.8332,-90.8320,10.0,4.714,70.0,,'11111222,11111222,99999999' 
WAVCIS,ioos:station:WAVCIS:CSI15:1,2010-03-06T04:00:00Z,28.8332,-90.8320,10.0,3.618,79.0,,'11111222,11111222,99999999' 
WAVCIS,ioos:station:WAVCIS:CSI15:1,2010-03-06T05:00:00Z,28.8332,-90.8320,10.0,3.1,88.0,,'11111222,11111222,99999999' 
WAVCIS,ioos:station:WAVCIS:CSI15:1,2010-03-06T06:00:00Z,28.8332,-90.8320,10.0,2.614,85.0,,'11111222,11111222,99999999' 
WAVCIS,ioos:station:WAVCIS:CSI15:1,2010-03-06T07:00:00Z,28.8332,-90.8320,10.0,2.029,59.0,,'11111222,11111222,99999999' 
WAVCIS,ioos:station:WAVCIS:CSI15:1,2010-03-06T08:00:00Z,28.8332,-90.8320,10.0,3.042,27.0,,'11111222,11111222,99999999' 
WAVCIS,ioos:station:WAVCIS:CSI15:1,2010-03-06T09:00:00Z,28.8332,-90.8320,10.0,3.42,5.0,,'11111222,11111222,99999999' 
WAVCIS,ioos:station:WAVCIS:CSI15:1,2010-03-06T10:00:00Z,28.8332,-90.8320,10.0,3.239,6.0,,'11111222,11111222,99999999' 
WAVCIS,ioos:station:WAVCIS:CSI15:1,2010-03-06T11:00:00Z,28.8332,-90.8320,10.0,4.058,5.0,,'11111222,11111222,99999999' 
WAVCIS,ioos:station:WAVCIS:CSI15:1,2010-03-06T12:00:00Z,28.8332,-90.8320,10.0,5.131,5.0,,'11111222,11111222,99999999' 
WAVCIS,ioos:station:WAVCIS:CSI15:1,2010-03-06T13:00:00Z,28.8332,-90.8320,10.0,5.689,6.0,,'11111222,11111222,99999999' 
WAVCIS,ioos:station:WAVCIS:CSI15:1,2010-03-06T14:00:00Z,28.8332,-90.8320,10.0,5.374,15.0,,'11111222,11111222,99999999' 
WAVCIS,ioos:station:WAVCIS:CSI15:1,2010-03-06T15:00:00Z,28.8332,-90.8320,10.0,5.532,10.0,,'11111222,11111222,99999999' 
WAVCIS,ioos:station:WAVCIS:CSI15:1,2010-03-06T16:00:00Z,28.8332,-90.8320,10.0,5.517,12.0,,'11111222,11111222,99999999' 
WAVCIS,ioos:station:WAVCIS:CSI15:1,2010-03-06T17:00:00Z,28.8332,-90.8320,10.0,5.156,29.0,,'11111222,11111222,99999999' 
WAVCIS,ioos:station:WAVCIS:CSI15:1,2010-03-06T18:00:00Z,28.8332,-90.8320,10.0,5.244,44.0,,'11111222,11111222,99999999' 
WAVCIS,ioos:station:WAVCIS:CSI15:1,2010-03-06T19:00:00Z,28.8332,-90.8320,10.0,4.488,52.0,,'11111222,11111222,99999999' 
WAVCIS,ioos:station:WAVCIS:CSI15:1,2010-03-06T20:00:00Z,28.8332,-90.8320,10.0,4.911,55.0,,'11111222,11111222,99999999' 
WAVCIS,ioos:station:WAVCIS:CSI15:1,2010-03-06T21:00:00Z,28.8332,-90.8320,10.0,4.8,63.0,,'11111222,11111222,99999999' 
WAVCIS,ioos:station:WAVCIS:CSI15:1,2010-03-06T22:00:00Z,28.8332,-90.8320,10.0,4.805,81.0,,'11111222,11111222,99999999' 
WAVCIS,ioos:station:WAVCIS:CSI15:1,2010-03-06T23:00:00Z,28.8332,-90.8320,10.0,5.434,85.0,,'11111222,11111222,99999999' 
WAVCIS,ioos:station:WAVCIS:CSI15:1,2010-03-07T00:00:00Z,28.8332,-90.8320,10.0,4.754,91.0,,'11111222,11111222,99999999' 
WAVCIS,ioos:station:WAVCIS:CSI15:1,2010-03-07T01:00:00Z,28.8332,-90.8320,10.0,4.654,105.0,,'11111222,11111222,99999999' 
WAVCIS,ioos:station:WAVCIS:CSI15:1,2010-03-07T02:00:00Z,28.8332,-90.8320,10.0,5.052,102.0,,'11111222,11111222,99999999' 
WAVCIS,ioos:station:WAVCIS:CSI15:1,2010-03-07T03:00:00Z,28.8332,-90.8320,10.0,4.98,103.0,,'11111222,11111222,99999999' 
WAVCIS,ioos:station:WAVCIS:CSI15:1,2010-03-07T04:00:00Z,28.8332,-90.8320,10.0,5.261,95.0,,'11111222,11111222,99999999' 
WAVCIS,ioos:station:WAVCIS:CSI15:1,2010-03-07T05:00:00Z,28.8332,-90.8320,10.0,5.292,99.0,,'11111222,11111222,99999999' 
WAVCIS,ioos:station:WAVCIS:CSI15:1,2010-03-07T06:00:00Z,28.8332,-90.8320,10.0,4.558,90.0,,'11111222,11111222,99999999' 
WAVCIS,ioos:station:WAVCIS:CSI15:1,2010-03-07T07:00:00Z,28.8332,-90.8320,10.0,3.095,93.0,,'11111222,11111222,99999999' 
WAVCIS,ioos:station:WAVCIS:CSI15:1,2010-03-07T08:00:00Z,28.8332,-90.8320,10.0,2.325,67.0,,'11111222,11111222,99999999' 
WAVCIS,ioos:station:WAVCIS:CSI15:1,2010-03-07T09:00:00Z,28.8332,-90.8320,10.0,3.631,73.0,,'11111222,11111222,99999999' 
WAVCIS,ioos:station:WAVCIS:CSI15:1,2010-03-07T10:00:00Z,28.8332,-90.8320,10.0,4.575,78.0,,'11111222,11111222,99999999' 
WAVCIS,ioos:station:WAVCIS:CSI15:1,2010-03-07T11:00:00Z,28.8332,-90.8320,10.0,5.073,70.0,,'11111222,11111222,99999999' 
WAVCIS,ioos:station:WAVCIS:CSI15:1,2010-03-07T12:00:00Z,28.8332,-90.8320,10.0,4.104,79.0,,'11111222,11111222,99999999' 
WAVCIS,ioos:station:WAVCIS:CSI15:1,2010-03-07T13:00:00Z,28.8332,-90.8320,10.0,4.105,55.0,,'11111222,11111222,99999999' 
WAVCIS,ioos:station:WAVCIS:CSI15:1,2010-03-07T14:00:00Z,28.8332,-90.8320,10.0,4.467,56.0,,'11111222,11111222,99999999' 
WAVCIS,ioos:station:WAVCIS:CSI15:1,2010-03-07T15:00:00Z,28.8332,-90.8320,10.0,4.918,39.0,,'11111222,11111222,99999999' 
WAVCIS,ioos:station:WAVCIS:CSI15:1,2010-03-07T16:00:00Z,28.8332,-90.8320,10.0,6.635,41.0,,'11111222,11111222,99999999' 
WAVCIS,ioos:station:WAVCIS:CSI15:1,2010-03-07T17:00:00Z,28.8332,-90.8320,10.0,6.324,55.0,,'11111222,11111222,99999999' 
WAVCIS,ioos:station:WAVCIS:CSI15:1,2010-03-07T18:00:00Z,28.8332,-90.8320,10.0,7.51,56.0,,'11111222,11111222,99999999' 
WAVCIS,ioos:station:WAVCIS:CSI15:1,2010-03-07T19:00:00Z,28.8332,-90.8320,10.0,7.22,58.0,,'11111222,11111222,99999999' 
WAVCIS,ioos:station:WAVCIS:CSI15:1,2010-03-07T20:00:00Z,28.8332,-90.8320,10.0,7.2,59.0,,'11111222,11111222,99999999' 
WAVCIS,ioos:station:WAVCIS:CSI15:1,2010-03-07T21:00:00Z,28.8332,-90.8320,10.0,7.04,69.0,,'11111222,11111222,99999999' 
WAVCIS,ioos:station:WAVCIS:CSI15:1,2010-03-07T22:00:00Z,28.8332,-90.8320,10.0,5.562,54.0,,'11111222,11111222,99999999' 
WAVCIS,ioos:station:WAVCIS:CSI15:1,2010-03-07T23:00:00Z,28.8332,-90.8320,10.0,5.674,59.0,,'11111222,11111222,99999999' 
WAVCIS,ioos:station:WAVCIS:CSI15:1,2010-03-08T00:00:00Z,28.8332,-90.8320,10.0,6.913,78.0,,'11111222,11111222,99999999' 
WAVCIS,ioos:station:WAVCIS:CSI15:1,2010-03-08T01:00:00Z,28.8332,-90.8320,10.0,5.363,68.0,,'11111222,11111222,99999999' 
WAVCIS,ioos:station:WAVCIS:CSI15:1,2010-03-08T02:00:00Z,28.8332,-90.8320,10.0,4.572,78.0,,'11111222,11111222,99999999' 
WAVCIS,ioos:station:WAVCIS:CSI15:1,2010-03-08T03:00:00Z,28.8332,-90.8320,10.0,4.926,64.0,,'11111222,11111222,99999999' 
WAVCIS,ioos:station:WAVCIS:CSI15:1,2010-03-08T04:00:00Z,28.8332,-90.8320,10.0,5.782,39.0,,'11111222,11111222,99999999' 
WAVCIS,ioos:station:WAVCIS:CSI15:1,2010-03-08T05:00:00Z,28.8332,-90.8320,10.0,6.332,54.0,,'11111222,11111222,99999999' 
WAVCIS,ioos:station:WAVCIS:CSI15:1,2010-03-08T06:00:00Z,28.8332,-90.8320,10.0,4.826,64.0,,'11111222,11111222,99999999' 
WAVCIS,ioos:station:WAVCIS:CSI15:1,2010-03-08T07:00:00Z,28.8332,-90.8320,10.0,5.33,58.0,,'11111222,11111222,99999999' 
WAVCIS,ioos:station:WAVCIS:CSI15:1,2010-03-08T08:00:00Z,28.8332,-90.8320,10.0,5.605,52.0,,'11111222,11111222,99999999' 
WAVCIS,ioos:station:WAVCIS:CSI15:1,2010-03-08T09:00:00Z,28.8332,-90.8320,10.0,6.132,49.0,,'11111222,11111222,99999999' 
WAVCIS,ioos:station:WAVCIS:CSI15:1,2010-03-08T10:00:00Z,28.8332,-90.8320,10.0,5.973,54.0,,'11111222,11111222,99999999' 
WAVCIS,ioos:station:WAVCIS:CSI15:1,2010-03-08T11:00:00Z,28.8332,-90.8320,10.0,5.972,55.0,,'11111222,11111222,99999999' 
WAVCIS,ioos:station:WAVCIS:CSI15:1,2010-03-08T12:00:00Z,28.8332,-90.8320,10.0,7.04,63.0,,'11111222,11111222,99999999' 
WAVCIS,ioos:station:WAVCIS:CSI15:1,2010-03-08T13:00:00Z,28.8332,-90.8320,10.0,7.67,75.0,,'11111222,11111222,99999999' 
WAVCIS,ioos:station:WAVCIS:CSI15:1,2010-03-08T14:00:00Z,28.8332,-90.8320,10.0,8.18,74.0,,'11111222,11111222,99999999' 
WAVCIS,ioos:station:WAVCIS:CSI15:1,2010-03-08T15:00:00Z,28.8332,-90.8320,10.0,7.45,78.0,,'11111222,11111222,99999999' 
WAVCIS,ioos:station:WAVCIS:CSI15:1,2010-03-08T16:00:00Z,28.8332,-90.8320,10.0,7.34,79.0,,'11111222,11111222,99999999' 
WAVCIS,ioos:station:WAVCIS:CSI15:1,2010-03-08T17:00:00Z,28.8332,-90.8320,10.0,7.3,89.0,,'11111222,11111222,99999999' 
WAVCIS,ioos:station:WAVCIS:CSI15:1,2010-03-08T18:00:00Z,28.8332,-90.8320,10.0,7.02,86.0,,'11111222,11111222,99999999' 
WAVCIS,ioos:station:WAVCIS:CSI15:1,2010-03-08T19:00:00Z,28.8332,-90.8320,10.0,4.747,72.0,,'11111222,11111222,99999999' 
WAVCIS,ioos:station:WAVCIS:CSI15:1,2010-03-08T20:00:00Z,28.8332,-90.8320,10.0,5.957,75.0,,'11111222,11111222,99999999' 
WAVCIS,ioos:station:WAVCIS:CSI15:1,2010-03-08T21:00:00Z,28.8332,-90.8320,10.0,7.21,73.0,,'11111222,11111222,99999999' 
WAVCIS,ioos:station:WAVCIS:CSI15:1,2010-03-08T22:00:00Z,28.8332,-90.8320,10.0,7.81,63.0,,'11111222,11111222,99999999' 
WAVCIS,ioos:station:WAVCIS:CSI15:1,2010-03-08T23:00:00Z,28.8332,-90.8320,10.0,7.57,77.0,,'11111222,11111222,99999999' 
WAVCIS,ioos:station:WAVCIS:CSI15:1,2010-03-09T00:00:00Z,28.8332,-90.8320,10.0,9.62,86.0,,'11111222,11111222,99999999' 
WAVCIS,ioos:station:WAVCIS:CSI15:1,2010-03-09T01:00:00Z,28.8332,-90.8320,10.0,11.21,99.0,,'11111222,11111222,99999999' 
WAVCIS,ioos:station:WAVCIS:CSI15:1,2010-03-09T02:00:00Z,28.8332,-90.8320,10.0,12.53,122.0,,'11111222,11111222,99999999' 
WAVCIS,ioos:station:WAVCIS:CSI15:1,2010-03-09T03:00:00Z,28.8332,-90.8320,10.0,10.66,134.0,,'11111222,11111222,99999999' 
WAVCIS,ioos:station:WAVCIS:CSI15:1,2010-03-09T04:00:00Z,28.8332,-90.8320,10.0,16.62,126.0,,'11111222,11111222,99999999' 
WAVCIS,ioos:station:WAVCIS:CSI15:1,2010-03-09T05:00:00Z,28.8332,-90.8320,10.0,16.28,133.0,,'11111222,11111222,99999999' 